| time (UTC) | temp F | wind direction | speed MPH | gust MPH | rain 1hr in | rain 24hr in | rain mn in | humidity % | barometer mb |
| 20260508022228 | 54 | 63 | 2.0 | 2.0 | 0.00 | 0.00 | 0.00 | 66 | 1014.8 |
| 20260508021724 | 54 | 63 | 2.0 | 2.0 | 0.00 | 0.00 | 0.00 | 66 | 1014.9 |
| 20260508021220 | 54 | 63 | 2.0 | 2.0 | 0.00 | 0.00 | 0.00 | 66 | 1014.9 |
| 20260508020717 | 54 | 63 | 2.0 | 2.0 | 0.00 | 0.00 | 0.00 | 66 | 1015.1 |
| 20260508020214 | 54 | 63 | 2.0 | 2.0 | 0.00 | 0.00 | 0.00 | 66 | 1014.9 |
| 20260508015712 | 54 | 80 | 2.0 | 3.0 | 0.00 | 0.00 | 0.00 | 66 | 1015.1 |
| 20260508015209 | 54 | 77 | 2.0 | 2.0 | 0.00 | 0.00 | 0.00 | 66 | 1015.1 |
| 20260508014705 | 54 | 74 | 2.0 | 3.0 | 0.00 | 0.00 | 0.00 | 64 | 1014.9 |
| 20260508014202 | 54 | 62 | 2.0 | 2.0 | 0.00 | 0.00 | 0.00 | 65 | 1015.0 |
| 20260508013658 | 55 | 82 | 2.0 | 2.0 | 0.00 | 0.00 | 0.00 | 64 | 1014.8 |
| 20260508013154 | 55 | 64 | 2.0 | 3.0 | 0.00 | 0.00 | 0.00 | 62 | 1014.6 |
| 20260508012652 | 55 | 75 | 2.0 | 3.0 | 0.00 | 0.00 | 0.00 | 61 | 1014.6 |
| 20260508012149 | 56 | 73 | 2.0 | 2.0 | 0.00 | 0.00 | 0.00 | 61 | 1014.4 |
| 20260508011648 | 56 | 78 | 2.0 | 2.0 | 0.00 | 0.00 | 0.00 | 59 | 1014.4 |
| 20260508011144 | 57 | 75 | 2.0 | 2.0 | 0.00 | 0.00 | 0.00 | 56 | 1014.3 |
| 20260508010641 | 57 | 80 | 2.0 | 2.0 | 0.00 | 0.00 | 0.00 | 56 | 1014.2 |
| 20260508010139 | 58 | 72 | 2.0 | 2.0 | 0.00 | 0.00 | 0.00 | 55 | 1014.1 |
| 20260508005636 | 58 | 71 | 2.0 | 2.0 | 0.00 | 0.00 | 0.00 | 55 | 1014.0 |
| 20260508005132 | 59 | 84 | 2.0 | 2.0 | 0.00 | 0.00 | 0.00 | 51 | 1014.1 |
| 20260508004628 | 59 | 86 | 2.0 | 2.0 | 0.00 | 0.00 | 0.00 | 49 | 1014.1 |
| 20260508004125 | 60 | 86 | 2.0 | 2.0 | 0.00 | 0.00 | 0.00 | 49 | 1014.0 |
| 20260508003621 | 61 | 72 | 1.0 | 2.0 | 0.00 | 0.00 | 0.00 | 50 | 1014.2 |
| 20260508003119 | 62 | 83 | 2.0 | 2.0 | 0.00 | 0.00 | 0.00 | 49 | 1014.2 |
| 20260508002615 | 62 | 82 | 2.0 | 2.0 | 0.00 | 0.00 | 0.00 | 45 | 1014.0 |
| 20260508002113 | 64 | 45 | 2.0 | 2.0 | 0.00 | 0.00 | 0.00 | 44 | 1014.0 |
| 20260508001608 | 64 | 26 | 3.0 | 3.0 | 0.00 | 0.00 | 0.00 | 41 | 1013.8 |
| 20260508001104 | 64 | 34 | 2.0 | 3.0 | 0.00 | 0.00 | 0.00 | 43 | 1013.6 |
| 20260508000600 | 64 | 49 | 2.0 | 3.0 | 0.00 | 0.00 | 0.00 | 42 | 1013.8 |
| 20260508000058 | 64 | 64 | 1.0 | 2.0 | 0.00 | 0.00 | 0.00 | 43 | 1013.7 |
| 20260507235555 | 64 | 33 | 2.0 | 2.0 | 0.00 | 0.00 | 0.00 | 42 | 1013.7 |
| 20260507235052 | 64 | 17 | 3.0 | 3.0 | 0.00 | 0.00 | 0.00 | 42 | 1013.5 |
| 20260507234548 | 64 | 217 | 0.0 | 4.0 | 0.00 | 0.00 | 0.00 | 42 | 1013.4 |
| 20260507234045 | 65 | 1 | 2.0 | 4.0 | 0.00 | 0.00 | 0.00 | 40 | 1013.5 |
| 20260507233542 | 66 | 121 | 0.0 | 3.0 | 0.00 | 0.00 | 0.00 | 40 | 1013.4 |
| 20260507233041 | 67 | 10 | 2.0 | 4.0 | 0.00 | 0.00 | 0.00 | 37 | 1013.2 |
| 20260507232536 | 68 | 49 | 2.0 | 3.0 | 0.00 | 0.00 | 0.00 | 40 | 1013.2 |
| 20260507232034 | 68 | 52 | 2.0 | 4.0 | 0.00 | 0.00 | 0.00 | 38 | 1013.5 |
| 20260507231530 | 68 | 282 | 2.0 | 2.0 | 0.00 | 0.00 | 0.00 | 39 | 1013.4 |
| 20260507231027 | 68 | 258 | 4.0 | 5.0 | 0.00 | 0.00 | 0.00 | 37 | 1013.6 |
| 20260507230524 | 68 | 282 | 0.0 | 2.0 | 0.00 | 0.00 | 0.00 | 40 | 1013.4 |
| 20260507230021 | 67 | 6 | 2.0 | 6.0 | 0.00 | 0.00 | 0.00 | 38 | 1013.5 |
| 20260507225515 | 68 | 194 | 1.0 | 3.0 | 0.00 | 0.00 | 0.00 | 37 | 1013.5 |
| 20260507225012 | 68 | 308 | 1.0 | 3.0 | 0.00 | 0.00 | 0.00 | 40 | 1013.6 |
| 20260507224508 | 67 | 352 | 3.0 | 3.0 | 0.00 | 0.00 | 0.00 | 39 | 1013.5 |
| 20260507224005 | 67 | 280 | 4.0 | 4.0 | 0.00 | 0.00 | 0.00 | 42 | 1013.4 |
| 20260507223500 | 68 | 36 | 2.0 | 3.0 | 0.00 | 0.00 | 0.00 | 39 | 1013.4 |
| 20260507222958 | 68 | 74 | 2.0 | 3.0 | 0.00 | 0.00 | 0.00 | 38 | 1013.5 |
| 20260507222455 | 68 | 337 | 3.0 | 4.0 | 0.00 | 0.00 | 0.00 | 38 | 1013.5 |
| 20260507221951 | 69 | 355 | 2.0 | 6.0 | 0.00 | 0.00 | 0.00 | 36 | 1013.5 |
| 20260507221448 | 69 | 269 | 0.0 | 3.0 | 0.00 | 0.00 | 0.00 | 37 | 1013.6 |
| 20260507220944 | 69 | 83 | 2.0 | 5.0 | 0.00 | 0.00 | 0.00 | 37 | 1013.6 |
| 20260507220442 | 69 | 263 | 2.0 | 5.0 | 0.00 | 0.00 | 0.00 | 36 | 1013.7 |
| 20260507215938 | 69 | 278 | 0.0 | 6.0 | 0.00 | 0.00 | 0.00 | 36 | 1013.7 |
| 20260507215435 | 69 | 357 | 2.0 | 4.0 | 0.00 | 0.00 | 0.00 | 35 | 1013.9 |
| 20260507214932 | 69 | 46 | 1.0 | 5.0 | 0.00 | 0.00 | 0.00 | 35 | 1013.7 |
| 20260507214430 | 69 | 339 | 1.0 | 5.0 | 0.00 | 0.00 | 0.00 | 36 | 1013.6 |
| 20260507213925 | 69 | 218 | 2.0 | 3.0 | 0.00 | 0.00 | 0.00 | 40 | 1013.6 |
| 20260507213422 | 68 | 16 | 1.0 | 5.0 | 0.00 | 0.00 | 0.00 | 36 | 1013.8 |
| 20260507212919 | 69 | 315 | 4.0 | 5.0 | 0.00 | 0.00 | 0.00 | 37 | 1013.5 |
| 20260507212415 | 69 | 301 | 1.0 | 4.0 | 0.00 | 0.00 | 0.00 | 36 | 1013.4 |
| 20260507211912 | 70 | 234 | 2.0 | 3.0 | 0.00 | 0.00 | 0.00 | 38 | 1013.3 |
| 20260507211408 | 70 | 36 | 0.0 | 3.0 | 0.00 | 0.00 | 0.00 | 37 | 1013.3 |
| 20260507210905 | 69 | 45 | 2.0 | 3.0 | 0.00 | 0.00 | 0.00 | 41 | 1013.3 |
| 20260507210402 | 68 | 48 | 4.0 | 8.0 | 0.00 | 0.00 | 0.00 | 38 | 1013.4 |
| 20260507205859 | 68 | 359 | 3.0 | 4.0 | 0.00 | 0.00 | 0.00 | 39 | 1013.3 |
| 20260507205356 | 68 | 40 | 5.0 | 6.0 | 0.00 | 0.00 | 0.00 | 40 | 1013.2 |
| 20260507204852 | 69 | 327 | 3.0 | 6.0 | 0.00 | 0.00 | 0.00 | 37 | 1013.6 |
| 20260507204349 | 69 | 5 | 2.0 | 6.0 | 0.00 | 0.00 | 0.00 | 37 | 1013.4 |
| 20260507203847 | 69 | 274 | 2.0 | 6.0 | 0.00 | 0.00 | 0.00 | 35 | 1013.5 |
| 20260507203344 | 68 | 315 | 2.0 | 5.0 | 0.00 | 0.00 | 0.00 | 38 | 1013.4 |
| 20260507202840 | 68 | 7 | 2.0 | 5.0 | 0.00 | 0.00 | 0.00 | 36 | 1013.5 |
| 20260507202337 | 68 | 353 | 3.0 | 4.0 | 0.00 | 0.00 | 0.00 | 37 | 1013.6 |
| 20260507201832 | 68 | 43 | 4.0 | 4.0 | 0.00 | 0.00 | 0.00 | 41 | 1013.5 |
| 20260507201328 | 68 | 59 | 2.0 | 6.0 | 0.00 | 0.00 | 0.00 | 39 | 1013.5 |
| 20260507200825 | 68 | 33 | 2.0 | 9.0 | 0.00 | 0.00 | 0.00 | 36 | 1013.6 |
| 20260507200321 | 67 | 264 | 4.0 | 6.0 | 0.00 | 0.00 | 0.00 | 39 | 1013.7 |
| 20260507195817 | 68 | 231 | 3.0 | 5.0 | 0.00 | 0.00 | 0.00 | 40 | 1013.6 |
| 20260507195315 | 68 | 286 | 4.0 | 5.0 | 0.00 | 0.00 | 0.00 | 39 | 1013.6 |
| 20260507194812 | 67 | 3 | 4.0 | 4.0 | 0.00 | 0.00 | 0.00 | 38 | 1013.6 |
| 20260507194308 | 67 | 340 | 5.0 | 5.0 | 0.00 | 0.00 | 0.00 | 37 | 1013.6 |
| 20260507193804 | 67 | 8 | 2.0 | 6.0 | 0.00 | 0.00 | 0.00 | 38 | 1013.7 |
| 20260507193301 | 67 | 355 | 4.0 | 6.0 | 0.00 | 0.00 | 0.00 | 37 | 1013.8 |
| 20260507192757 | 68 | 314 | 1.0 | 5.0 | 0.00 | 0.00 | 0.00 | 40 | 1013.8 |
| 20260507192254 | 68 | 34 | 3.0 | 4.0 | 0.00 | 0.00 | 0.00 | 40 | 1013.7 |
| 20260507191750 | 68 | 42 | 3.0 | 4.0 | 0.00 | 0.00 | 0.00 | 40 | 1013.9 |
| 20260507191247 | 67 | 287 | 2.0 | 4.0 | 0.00 | 0.00 | 0.00 | 39 | 1014.0 |
| 20260507190744 | 67 | 318 | 3.0 | 5.0 | 0.00 | 0.00 | 0.00 | 38 | 1014.0 |
| 20260507190243 | 68 | 34 | 4.0 | 6.0 | 0.00 | 0.00 | 0.00 | 38 | 1013.9 |
| 20260507185741 | 67 | 66 | 4.0 | 6.0 | 0.00 | 0.00 | 0.00 | 41 | 1013.8 |
| 20260507185237 | 68 | 47 | 3.0 | 5.0 | 0.00 | 0.00 | 0.00 | 38 | 1014.0 |
| 20260507184735 | 67 | 310 | 0.0 | 3.0 | 0.00 | 0.00 | 0.00 | 47 | 1014.1 |
| 20260507184233 | 66 | 294 | 2.0 | 6.0 | 0.00 | 0.00 | 0.00 | 41 | 1014.1 |
| 20260507183729 | 66 | 28 | 2.0 | 7.0 | 0.00 | 0.00 | 0.00 | 41 | 1014.0 |
| 20260507183226 | 67 | 67 | 7.0 | 9.0 | 0.00 | 0.00 | 0.00 | 43 | 1014.2 |
| 20260507182723 | 66 | 225 | 3.0 | 3.0 | 0.00 | 0.00 | 0.00 | 40 | 1014.0 |
| 20260507182218 | 66 | 341 | 2.0 | 5.0 | 0.00 | 0.00 | 0.00 | 39 | 1014.2 |
| 20260507181715 | 66 | 358 | 3.0 | 4.0 | 0.00 | 0.00 | 0.00 | 41 | 1014.1 |
| 20260507181212 | 66 | 332 | 2.0 | 4.0 | 0.00 | 0.00 | 0.00 | 45 | 1014.2 |
| 20260507180709 | 66 | 299 | 4.0 | 6.0 | 0.00 | 0.00 | 0.00 | 39 | 1014.1 |
| 20260507180206 | 65 | 74 | 3.0 | 6.0 | 0.00 | 0.00 | 0.00 | 41 | 1014.0 |
| 20260507175701 | 65 | 353 | 3.0 | 4.0 | 0.00 | 0.00 | 0.00 | 40 | 1014.1 |
| 20260507175158 | 65 | 260 | 1.0 | 5.0 | 0.00 | 0.00 | 0.00 | 42 | 1014.3 |
| 20260507174655 | 66 | 273 | 0.0 | 2.0 | 0.00 | 0.00 | 0.00 | 43 | 1014.3 |
| 20260507174154 | 66 | 8 | 2.0 | 5.0 | 0.00 | 0.00 | 0.00 | 43 | 1014.4 |
| 20260507173650 | 66 | 358 | 2.0 | 4.0 | 0.00 | 0.00 | 0.00 | 43 | 1014.5 |
| 20260507173147 | 65 | 80 | 4.0 | 6.0 | 0.00 | 0.00 | 0.00 | 46 | 1014.6 |
| 20260507172644 | 66 | 3 | 2.0 | 4.0 | 0.00 | 0.00 | 0.00 | 44 | 1014.8 |
| 20260507172141 | 66 | 316 | 6.0 | 6.0 | 0.00 | 0.00 | 0.00 | 42 | 1014.8 |
| 20260507171641 | 65 | 331 | 4.0 | 4.0 | 0.00 | 0.00 | 0.00 | 44 | 1014.9 |
| 20260507171139 | 64 | 355 | 4.0 | 5.0 | 0.00 | 0.00 | 0.00 | 42 | 1014.7 |
| 20260507170636 | 64 | 19 | 1.0 | 7.0 | 0.00 | 0.00 | 0.00 | 44 | 1014.9 |
| 20260507170133 | 65 | 356 | 4.0 | 5.0 | 0.00 | 0.00 | 0.00 | 43 | 1014.8 |
| 20260507165628 | 65 | 171 | 1.0 | 7.0 | 0.00 | 0.00 | 0.00 | 43 | 1015.0 |
| 20260507165125 | 66 | 340 | 2.0 | 5.0 | 0.00 | 0.00 | 0.00 | 45 | 1015.0 |
| 20260507164620 | 65 | 22 | 3.0 | 4.0 | 0.00 | 0.00 | 0.00 | 45 | 1014.9 |
| 20260507164118 | 64 | 314 | 4.0 | 5.0 | 0.00 | 0.00 | 0.00 | 45 | 1014.9 |
| 20260507163615 | 64 | 334 | 6.0 | 7.0 | 0.00 | 0.00 | 0.00 | 43 | 1014.9 |
| 20260507163113 | 64 | 60 | 3.0 | 6.0 | 0.00 | 0.00 | 0.00 | 48 | 1014.9 |
| 20260507162608 | 64 | 83 | 4.0 | 4.0 | 0.00 | 0.00 | 0.00 | 46 | 1015.1 |
| 20260507162105 | 64 | 342 | 8.0 | 9.0 | 0.00 | 0.00 | 0.00 | 43 | 1015.0 |
| 20260507161601 | 65 | 1 | 3.0 | 6.0 | 0.00 | 0.00 | 0.00 | 47 | 1015.0 |
| 20260507161057 | 64 | 41 | 0.0 | 4.0 | 0.00 | 0.00 | 0.00 | 48 | 1015.2 |
| 20260507160554 | 63 | 344 | 3.0 | 3.0 | 0.00 | 0.00 | 0.00 | 46 | 1015.0 |
| 20260507160050 | 63 | 307 | 2.0 | 4.0 | 0.00 | 0.00 | 0.00 | 48 | 1015.2 |
| 20260507155546 | 64 | 88 | 4.0 | 7.0 | 0.00 | 0.00 | 0.00 | 46 | 1015.2 |
| 20260507155043 | 64 | 10 | 2.0 | 4.0 | 0.00 | 0.00 | 0.00 | 44 | 1015.1 |
| 20260507154540 | 64 | 71 | 5.0 | 7.0 | 0.00 | 0.00 | 0.00 | 48 | 1015.3 |
| 20260507154037 | 63 | 82 | 5.0 | 6.0 | 0.00 | 0.00 | 0.00 | 48 | 1015.2 |
| 20260507153534 | 62 | 88 | 4.0 | 5.0 | 0.00 | 0.00 | 0.00 | 49 | 1015.1 |
| 20260507153030 | 62 | 304 | 3.0 | 8.0 | 0.00 | 0.00 | 0.00 | 51 | 1015.1 |
| 20260507152526 | 62 | 356 | 2.0 | 3.0 | 0.00 | 0.00 | 0.00 | 50 | 1015.2 |
| 20260507152022 | 62 | 314 | 3.0 | 6.0 | 0.00 | 0.00 | 0.00 | 50 | 1015.2 |
| 20260507151519 | 62 | 49 | 4.0 | 6.0 | 0.00 | 0.00 | 0.00 | 53 | 1015.2 |
| 20260507151016 | 62 | 338 | 5.0 | 8.0 | 0.00 | 0.00 | 0.00 | 46 | 1015.4 |
| 20260507150513 | 62 | 25 | 3.0 | 5.0 | 0.00 | 0.00 | 0.00 | 49 | 1015.2 |
| 20260507150009 | 63 | 345 | 4.0 | 4.0 | 0.00 | 0.00 | 0.00 | 48 | 1015.3 |
| 20260507145504 | 62 | 64 | 4.0 | 6.0 | 0.00 | 0.00 | 0.00 | 50 | 1015.2 |
| 20260507145002 | 62 | 344 | 3.0 | 5.0 | 0.00 | 0.00 | 0.00 | 50 | 1015.1 |
| 20260507144459 | 62 | 16 | 3.0 | 7.0 | 0.00 | 0.00 | 0.00 | 52 | 1015.1 |
| 20260507143955 | 61 | 79 | 4.0 | 4.0 | 0.00 | 0.00 | 0.00 | 53 | 1015.2 |
| 20260507143453 | 60 | 345 | 2.0 | 4.0 | 0.00 | 0.00 | 0.00 | 55 | 1015.4 |
| 20260507142950 | 60 | 252 | 3.0 | 6.0 | 0.00 | 0.00 | 0.00 | 54 | 1015.2 |
| 20260507142445 | 60 | 279 | 2.0 | 5.0 | 0.00 | 0.00 | 0.00 | 56 | 1015.4 |
| 20260507141943 | 60 | 87 | 5.0 | 5.0 | 0.00 | 0.00 | 0.00 | 55 | 1015.1 |
| 20260507141438 | 60 | 7 | 2.0 | 4.0 | 0.00 | 0.00 | 0.00 | 54 | 1015.1 |
| 20260507140936 | 60 | 313 | 3.0 | 6.0 | 0.00 | 0.00 | 0.00 | 58 | 1015.1 |
| 20260507140432 | 60 | 73 | 4.0 | 8.0 | 0.00 | 0.00 | 0.00 | 54 | 1014.9 |
| 20260507135930 | 60 | 42 | 4.0 | 6.0 | 0.00 | 0.00 | 0.00 | 57 | 1014.9 |
| 20260507135426 | 60 | 49 | 2.0 | 4.0 | 0.00 | 0.00 | 0.00 | 56 | 1014.7 |
| 20260507134924 | 58 | 41 | 4.0 | 5.0 | 0.00 | 0.00 | 0.00 | 60 | 1014.7 |
| 20260507134420 | 58 | 41 | 4.0 | 5.0 | 0.00 | 0.00 | 0.00 | 60 | 1014.7 |
| 20260507133916 | 58 | 84 | 4.0 | 6.0 | 0.00 | 0.00 | 0.00 | 59 | 1014.9 |
| 20260507133412 | 59 | 2 | 4.0 | 4.0 | 0.00 | 0.00 | 0.00 | 57 | 1014.8 |
| 20260507132911 | 58 | 96 | 3.0 | 5.0 | 0.00 | 0.00 | 0.00 | 62 | 1014.8 |
| 20260507132407 | 57 | 23 | 1.0 | 3.0 | 0.00 | 0.00 | 0.00 | 65 | 1014.8 |
| 20260507131905 | 56 | 13 | 1.0 | 2.0 | 0.00 | 0.00 | 0.00 | 66 | 1014.6 |
| 20260507131401 | 56 | 342 | 4.0 | 5.0 | 0.00 | 0.00 | 0.00 | 62 | 1014.9 |
| 20260507130858 | 57 | 0 | 3.0 | 5.0 | 0.00 | 0.00 | 0.00 | 62 | 1014.8 |
| 20260507130354 | 58 | 14 | 2.0 | 4.0 | 0.00 | 0.00 | 0.00 | 63 | 1014.9 |
| 20260507125854 | 57 | 63 | 3.0 | 3.0 | 0.00 | 0.00 | 0.00 | 64 | 1014.8 |
| 20260507125350 | 57 | 57 | 2.0 | 4.0 | 0.00 | 0.00 | 0.00 | 63 | 1014.8 |
| 20260507124848 | 58 | 40 | 4.0 | 4.0 | 0.00 | 0.00 | 0.00 | 63 | 1014.7 |
| 20260507124343 | 56 | 49 | 1.0 | 2.0 | 0.00 | 0.00 | 0.00 | 69 | 1014.6 |
| 20260507123843 | 56 | 85 | 4.0 | 4.0 | 0.00 | 0.00 | 0.00 | 66 | 1014.7 |
| 20260507123339 | 55 | 101 | 3.0 | 6.0 | 0.00 | 0.00 | 0.00 | 69 | 1014.7 |
| 20260507122836 | 54 | 354 | 2.0 | 3.0 | 0.00 | 0.00 | 0.00 | 70 | 1014.7 |
| 20260507122331 | 54 | 9 | 3.0 | 3.0 | 0.00 | 0.00 | 0.00 | 71 | 1014.6 |
| 20260507121828 | 54 | 39 | 2.0 | 3.0 | 0.00 | 0.00 | 0.00 | 71 | 1014.7 |
| 20260507121323 | 53 | 49 | 2.0 | 3.0 | 0.00 | 0.00 | 0.00 | 74 | 1014.7 |
| 20260507120820 | 53 | 15 | 0.0 | 4.0 | 0.00 | 0.00 | 0.00 | 73 | 1014.5 |
| 20260507120316 | 53 | 50 | 2.0 | 4.0 | 0.00 | 0.00 | 0.00 | 74 | 1014.3 |
| 20260507115813 | 53 | 24 | 2.0 | 3.0 | 0.00 | 0.00 | 0.00 | 73 | 1014.2 |
| 20260507115308 | 53 | 92 | 3.0 | 3.0 | 0.00 | 0.00 | 0.00 | 74 | 1014.5 |
| 20260507114804 | 53 | 358 | 3.0 | 4.0 | 0.00 | 0.00 | 0.00 | 74 | 1014.5 |
| 20260507114302 | 53 | 339 | 2.0 | 3.0 | 0.00 | 0.00 | 0.00 | 74 | 1014.4 |
| 20260507113759 | 52 | 42 | 3.0 | 4.0 | 0.00 | 0.00 | 0.00 | 76 | 1014.5 |
| 20260507113256 | 52 | 24 | 2.0 | 3.0 | 0.00 | 0.00 | 0.00 | 78 | 1014.4 |
| 20260507112754 | 51 | 47 | 2.0 | 3.0 | 0.00 | 0.00 | 0.00 | 79 | 1014.1 |
| 20260507112250 | 51 | 53 | 2.0 | 2.0 | 0.00 | 0.00 | 0.00 | 80 | 1014.0 |
| 20260507111748 | 50 | 40 | 2.0 | 3.0 | 0.00 | 0.00 | 0.00 | 81 | 1013.9 |
| 20260507111244 | 50 | 45 | 3.0 | 3.0 | 0.00 | 0.00 | 0.00 | 82 | 1013.9 |
| 20260507110741 | 50 | 1 | 2.0 | 3.0 | 0.00 | 0.00 | 0.00 | 82 | 1013.6 |
| 20260507110237 | 50 | 62 | 3.0 | 3.0 | 0.00 | 0.00 | 0.00 | 82 | 1013.6 |
| 20260507105734 | 50 | 53 | 1.0 | 3.0 | 0.00 | 0.00 | 0.00 | 82 | 1013.5 |
| 20260507105230 | 50 | 14 | 2.0 | 3.0 | 0.00 | 0.00 | 0.00 | 82 | 1013.4 |
| 20260507104728 | 50 | 32 | 3.0 | 3.0 | 0.00 | 0.00 | 0.00 | 82 | 1013.4 |
| 20260507104224 | 50 | 51 | 2.0 | 3.0 | 0.00 | 0.00 | 0.00 | 82 | 1013.4 |
| 20260507103720 | 50 | 27 | 2.0 | 2.0 | 0.00 | 0.00 | 0.00 | 82 | 1013.5 |
| 20260507103217 | 51 | 37 | 3.0 | 3.0 | 0.00 | 0.00 | 0.00 | 82 | 1013.4 |
| 20260507102713 | 51 | 43 | 3.0 | 3.0 | 0.00 | 0.00 | 0.00 | 82 | 1013.4 |
| 20260507102210 | 51 | 53 | 2.0 | 3.0 | 0.00 | 0.00 | 0.00 | 81 | 1013.3 |
| 20260507101706 | 51 | 20 | 2.0 | 3.0 | 0.00 | 0.00 | 0.00 | 81 | 1013.4 |
| 20260507101201 | 51 | 350 | 3.0 | 4.0 | 0.00 | 0.00 | 0.00 | 80 | 1013.3 |
| 20260507100658 | 51 | 40 | 3.0 | 3.0 | 0.00 | 0.00 | 0.00 | 80 | 1013.3 |
| 20260507100157 | 52 | 34 | 2.0 | 4.0 | 0.00 | 0.00 | 0.00 | 80 | 1013.4 |
| 20260507095655 | 52 | 17 | 2.0 | 4.0 | 0.00 | 0.00 | 0.00 | 80 | 1013.2 |
| 20260507095151 | 52 | 18 | 2.0 | 3.0 | 0.00 | 0.00 | 0.00 | 81 | 1013.3 |
| 20260507094647 | 52 | 356 | 3.0 | 3.0 | 0.00 | 0.00 | 0.00 | 81 | 1013.2 |
| 20260507094144 | 52 | 21 | 3.0 | 4.0 | 0.00 | 0.00 | 0.00 | 81 | 1012.8 |
| 20260507093642 | 52 | 54 | 2.0 | 2.0 | 0.00 | 0.00 | 0.00 | 82 | 1013.2 |
| 20260507093141 | 52 | 55 | 3.0 | 4.0 | 0.00 | 0.00 | 0.00 | 81 | 1013.2 |
| 20260507092637 | 52 | 66 | 0.0 | 4.0 | 0.00 | 0.00 | 0.00 | 82 | 1013.2 |
| 20260507092133 | 52 | 46 | 2.0 | 3.0 | 0.00 | 0.00 | 0.00 | 83 | 1013.1 |
| 20260507091630 | 52 | 347 | 2.0 | 3.0 | 0.00 | 0.00 | 0.00 | 84 | 1013.4 |
| 20260507091126 | 52 | 50 | 2.0 | 4.0 | 0.00 | 0.00 | 0.00 | 85 | 1013.2 |
| 20260507090622 | 52 | 51 | 2.0 | 2.0 | 0.00 | 0.00 | 0.00 | 86 | 1013.1 |
| 20260507090119 | 52 | 44 | 2.0 | 3.0 | 0.00 | 0.00 | 0.00 | 85 | 1013.1 |
| 20260507085616 | 52 | 55 | 0.0 | 3.0 | 0.00 | 0.00 | 0.00 | 86 | 1013.1 |
| 20260507085112 | 52 | 52 | 2.0 | 3.0 | 0.00 | 0.00 | 0.00 | 86 | 1012.9 |
| 20260507084610 | 52 | 77 | 1.0 | 2.0 | 0.00 | 0.00 | 0.00 | 86 | 1013.1 |
| 20260507084106 | 52 | 62 | 2.0 | 3.0 | 0.00 | 0.00 | 0.00 | 86 | 1013.0 |
| 20260507083602 | 52 | 50 | 2.0 | 2.0 | 0.00 | 0.00 | 0.00 | 85 | 1013.3 |
| 20260507083100 | 52 | 30 | 2.0 | 3.0 | 0.00 | 0.00 | 0.00 | 85 | 1013.3 |
| 20260507082555 | 52 | 47 | 1.0 | 4.0 | 0.00 | 0.00 | 0.00 | 85 | 1013.3 |
| 20260507082052 | 52 | 36 | 2.0 | 3.0 | 0.00 | 0.00 | 0.00 | 86 | 1013.2 |
| 20260507081548 | 52 | 51 | 0.0 | 3.0 | 0.00 | 0.00 | 0.00 | 86 | 1012.9 |
| 20260507081046 | 52 | 53 | 2.0 | 3.0 | 0.00 | 0.00 | 0.00 | 87 | 1013.2 |
| 20260507080541 | 52 | 34 | 2.0 | 2.0 | 0.00 | 0.00 | 0.00 | 89 | 1013.0 |
| 20260507080038 | 52 | 39 | 2.0 | 2.0 | 0.00 | 0.00 | 0.00 | 89 | 1013.1 |
| 20260507075533 | 52 | 70 | 2.0 | 2.0 | 0.00 | 0.00 | 0.00 | 90 | 1012.9 |
| 20260507075030 | 52 | 93 | 2.0 | 2.0 | 0.00 | 0.00 | 0.00 | 91 | 1013.1 |
| 20260507074527 | 52 | 61 | 2.0 | 2.0 | 0.00 | 0.00 | 0.00 | 91 | 1013.3 |
| 20260507074026 | 52 | 53 | 2.0 | 2.0 | 0.00 | 0.00 | 0.00 | 92 | 1013.2 |
| 20260507073521 | 52 | 88 | 1.0 | 2.0 | 0.00 | 0.00 | 0.00 | 93 | 1013.3 |
| 20260507073018 | 52 | 84 | 1.0 | 2.0 | 0.00 | 0.00 | 0.00 | 93 | 1013.4 |
| 20260507072515 | 52 | 93 | 1.0 | 2.0 | 0.00 | 0.00 | 0.00 | 92 | 1013.4 |
| 20260507072012 | 52 | 91 | 2.0 | 2.0 | 0.00 | 0.00 | 0.00 | 92 | 1013.3 |
| 20260507071509 | 52 | 77 | 1.0 | 2.0 | 0.00 | 0.00 | 0.00 | 91 | 1013.2 |
| 20260507071006 | 52 | 81 | 1.0 | 2.0 | 0.00 | 0.00 | 0.00 | 91 | 1013.4 |
| 20260507070503 | 52 | 92 | 2.0 | 2.0 | 0.00 | 0.00 | 0.00 | 90 | 1013.6 |
| 20260507070000 | 52 | 45 | 2.0 | 2.0 | 0.00 | 0.00 | 0.00 | 91 | 1013.6 |
| 20260507065456 | 52 | 61 | 2.0 | 2.0 | 0.00 | 0.00 | 0.00 | 91 | 1013.3 |
| 20260507064954 | 52 | 61 | 2.0 | 2.0 | 0.00 | 0.00 | 0.00 | 91 | 1013.7 |
| 20260507064452 | 53 | 66 | 2.0 | 2.0 | 0.00 | 0.00 | 0.00 | 91 | 1013.7 |
| 20260507063949 | 52 | 56 | 2.0 | 2.0 | 0.00 | 0.00 | 0.00 | 90 | 1013.4 |
| 20260507063446 | 53 | 55 | 2.0 | 2.0 | 0.00 | 0.00 | 0.00 | 91 | 1013.4 |
| 20260507062943 | 53 | 72 | 2.0 | 2.0 | 0.00 | 0.00 | 0.00 | 91 | 1013.3 |
| 20260507062441 | 53 | 57 | 2.0 | 2.0 | 0.00 | 0.00 | 0.00 | 90 | 1013.2 |
| 20260507061938 | 53 | 73 | 2.0 | 2.0 | 0.00 | 0.00 | 0.00 | 90 | 1013.4 |
| 20260507061436 | 53 | 29 | 1.0 | 2.0 | 0.00 | 0.00 | 0.00 | 91 | 1013.4 |
| 20260507060934 | 53 | 47 | 2.0 | 2.0 | 0.00 | 0.00 | 0.00 | 92 | 1013.2 |
| 20260507060430 | 53 | 42 | 1.0 | 2.0 | 0.00 | 0.00 | 0.00 | 93 | 1013.6 |
| 20260507055927 | 53 | 57 | 2.0 | 2.0 | 0.00 | 0.00 | 0.00 | 94 | 1013.0 |
| 20260507055423 | 53 | 48 | 2.0 | 2.0 | 0.00 | 0.00 | 0.00 | 94 | 1013.0 |
| 20260507054920 | 53 | 53 | 2.0 | 2.0 | 0.00 | 0.00 | 0.00 | 94 | 1013.3 |
| 20260507054415 | 53 | 65 | 2.0 | 2.0 | 0.00 | 0.00 | 0.00 | 94 | 1013.4 |
| 20260507053913 | 53 | 56 | 2.0 | 2.0 | 0.00 | 0.00 | 0.00 | 95 | 1013.4 |
| 20260507053410 | 53 | 20 | 2.0 | 2.0 | 0.00 | 0.00 | 0.00 | 96 | 1013.3 |
| 20260507052909 | 53 | 37 | 2.0 | 2.0 | 0.00 | 0.00 | 0.00 | 96 | 1013.4 |
| 20260507052406 | 53 | 63 | 2.0 | 2.0 | 0.00 | 0.00 | 0.00 | 96 | 1013.4 |
| 20260507051903 | 53 | 64 | 2.0 | 3.0 | 0.00 | 0.00 | 0.00 | 96 | 1013.8 |
| 20260507051401 | 53 | 83 | 2.0 | 2.0 | 0.00 | 0.00 | 0.00 | 96 | 1014.4 |
| 20260507050857 | 53 | 80 | 0.0 | 2.0 | 0.00 | 0.00 | 0.00 | 96 | 1014.4 |
| 20260507050354 | 53 | 54 | 2.0 | 2.0 | 0.00 | 0.00 | 0.00 | 96 | 1014.1 |
| 20260507045851 | 53 | 64 | 2.0 | 2.0 | 0.00 | 0.80 | 0.80 | 96 | 1014.2 |
| 20260507045347 | 53 | 85 | 2.0 | 2.0 | 0.00 | 0.80 | 0.80 | 96 | 1014.1 |
| 20260507044844 | 53 | 60 | 2.0 | 2.0 | 0.00 | 0.80 | 0.80 | 96 | 1014.0 |
| 20260507044341 | 53 | 73 | 2.0 | 2.0 | 0.00 | 0.80 | 0.80 | 96 | 1014.1 |
| 20260507043836 | 53 | 60 | 2.0 | 2.0 | 0.00 | 0.80 | 0.80 | 96 | 1014.1 |
| 20260507043334 | 53 | 81 | 0.0 | 1.0 | 0.00 | 0.80 | 0.80 | 96 | 1014.1 |
| 20260507042830 | 53 | 86 | 2.0 | 2.0 | 0.00 | 0.80 | 0.80 | 96 | 1013.8 |
| 20260507042326 | 53 | 119 | 0.0 | 2.0 | 0.00 | 0.80 | 0.80 | 96 | 1014.1 |
| 20260507041823 | 53 | 96 | 2.0 | 2.0 | 0.00 | 0.80 | 0.80 | 96 | 1013.9 |
| 20260507041319 | 54 | 68 | 1.0 | 2.0 | 0.00 | 0.80 | 0.80 | 96 | 1013.9 |
| 20260507040816 | 53 | 72 | 0.0 | 1.0 | 0.00 | 0.80 | 0.80 | 96 | 1013.7 |
| 20260507040312 | 53 | 72 | 0.0 | 1.0 | 0.00 | 0.80 | 0.80 | 96 | 1013.9 |
| 20260507035808 | 53 | 62 | 2.0 | 2.0 | 0.00 | 0.80 | 0.80 | 96 | 1013.5 |
| 20260507035306 | 53 | 76 | 2.0 | 2.0 | 0.00 | 0.80 | 0.80 | 96 | 1013.7 |
| 20260507034802 | 53 | 40 | 1.0 | 2.0 | 0.00 | 0.80 | 0.80 | 95 | 1013.5 |
| 20260507034259 | 53 | 92 | 2.0 | 2.0 | 0.02 | 0.80 | 0.80 | 95 | 1014.0 |
| 20260507033757 | 53 | 60 | 0.0 | 2.0 | 0.02 | 0.80 | 0.80 | 95 | 1014.3 |
| 20260507033254 | 53 | 89 | 0.0 | 2.0 | 0.00 | 0.80 | 0.80 | 95 | 1013.6 |
| 20260507032751 | 53 | 44 | 2.0 | 2.0 | 0.00 | 0.80 | 0.80 | 95 | 1013.5 |
| 20260507032247 | 53 | 93 | 2.0 | 2.0 | 0.00 | 0.80 | 0.80 | 95 | 1013.9 |
| 20260507031744 | 53 | 71 | 2.0 | 2.0 | 0.00 | 0.80 | 0.80 | 95 | 1013.9 |
| 20260507031241 | 53 | 80 | 1.0 | 3.0 | 0.00 | 0.80 | 0.80 | 94 | 1013.5 |
| 20260507030737 | 53 | 88 | 2.0 | 2.0 | 0.00 | 0.80 | 0.80 | 94 | 1013.7 |
| 20260507030235 | 53 | 50 | 0.0 | 2.0 | 0.00 | 0.80 | 0.80 | 94 | 1013.7 |
| 20260507025732 | 53 | 92 | 2.0 | 2.0 | 0.00 | 0.80 | 0.80 | 94 | 1013.5 |
| 20260507025229 | 53 | 72 | 0.0 | 2.0 | 0.02 | 0.80 | 0.80 | 94 | 1013.5 |
| 20260507024727 | 53 | 50 | 1.0 | 2.0 | 0.02 | 0.80 | 0.80 | 94 | 1013.4 |
| 20260507024224 | 53 | 81 | 0.0 | 3.0 | 0.00 | 0.79 | 0.79 | 94 | 1013.1 |
| 20260507023720 | 53 | 17 | 1.0 | 2.0 | 0.00 | 0.79 | 0.79 | 93 | 1013.5 |
| 20260507023217 | 53 | 21 | 2.0 | 3.0 | 0.02 | 0.79 | 0.79 | 94 | 1013.6 |
| 20260507022714 | 53 | 57 | 3.0 | 3.0 | 0.02 | 0.79 | 0.79 | 94 | 1013.3 |